Regional Weather Roundup
Issued by NWS

Home | Current Version | Previous Version | Text Only | Print | Product List | Glossary On
Versions: 1 2 3 4 5 6 7 8 9 10 11 12 13 14 15 16 17 18 19 20 21 22 23 24 25 26 27 28 29 30 31 32 33 34 35 36 37 38 39 40 41 42 43 44 45 46 47 48 49 50
000
ASUS46 KLOX 032313
RWRCA

SOUTHERN CALIFORNIA WEATHER ROUNDUP
NATIONAL WEATHER SERVICE OXNARD CALIFORNIA
400 PM PDT FRI JUL 03 2015

NOTE: "FAIR" INDICATES FEW OR NO CLOUDS BELOW 12,000 FEET WITH NO
SIGNIFICANT WEATHER AND/OR OBSTRUCTIONS TO VISIBILITY.

  -  STATIONS PRECEEDED BY AN ASTERISK (*) ARE NOT NWS OR FAA
     STATIONS AND ARE NOT SUBJECT TO NWS AND FAA QUALITY CONTROL.

CAZ041-042-087-040000-
LA AND ORANGE COUNTY COASTAL AREAS


CITY           SKY/WX    TMP DP  RH WIND       PRES   REMARKS
L.A. DOWNTOWN  SUNNY     75  61  61 VRB5      29.86F
L.A. AIRPORT   PTSUNNY   69  61  75 W14       29.89F
LONG BEACH     SUNNY     81  61  50 NW10      29.86F

CITY           SKY/WX    TMP DP  RH WIND       PRES   REMARKS
AVALON           N/A     70 N/A N/A MISG        N/A
FULLERTON      SUNNY     83  62  49 S8        29.85F
*GETTY CENTER    N/A    N/A N/A N/A S9          N/A
HAWTHORNE      SUNNY     74  61  63 W9        29.88F
*LOS ALAMITOS  FAIR      79  63  59 SW13      29.86F
*REDONDO BEACH   N/A     73  62  68 W3        29.88F
SANTA ANA      MOSUNNY   74  62  66 SW9       29.87F
STA MONICA APT MOSUNNY   65  61  87 SW10      29.88F
TORRANCE       MOSUNNY   73  63  68 NW17      29.88F
*UCLA            N/A    N/A N/A N/A SW7       29.85F

$$

CAZ547-548-048-040000-
LA COUNTY VALLEYS AND INLAND EMPIRE


CITY           SKY/WX    TMP DP  RH WIND       PRES   REMARKS
BURBANK        SUNNY     86  57  37 S8        29.86F
VAN NUYS       SUNNY     90  56  31 SE9       29.85F

CITY           SKY/WX    TMP DP  RH WIND       PRES   REMARKS
CORONA AIRPORT CLOUDY    88  57  34 W17       29.84F
*CHATSWORTH      N/A     89  59  36 NW9       29.82F
CHINO          MOSUNNY   93  58  30 W17G24    29.85F HX  92
MARCH AFB      MOSUNNY   90  54  29 NW12      29.88F
*NORTHRIDGE      N/A     91  54  27 S2          N/A
ONTARIO        PTSUNNY   92  58  31 W14       29.85F HX  91
*PASADENA        N/A     86  63  45 E2          N/A
POMONA         SUNNY     88  59  37 W12       29.89F
RIVERSIDE      MOSUNNY   91  57  31 W12G18    29.84F
SAN BERNARDINO PTSUNNY  N/A N/A N/A W14       29.85F
*WHITEMAN AP   MOSUNNY   86  46  25 S9        29.90F
*WOODLAND HILL   N/A     93  55  27 W7          N/A  HX  91

$$

CAZ054-055-040000-
LA AND SAN BERNARDINO COUNTY MOUNTAINS


CITY           SKY/WX    TMP DP  RH WIND       PRES   REMARKS
*BIG BEAR AIRP PTCLDY    79  41  25 N10G17    30.23S
SANDBERG       SUNNY     89  46  22 S14G20    30.08F

$$

CAZ028-029-059-060-099-040000-
ANTELOPE VALLEY AND SURROUNDING AREAS


CITY           SKY/WX    TMP DP  RH WIND       PRES   REMARKS
LANCASTER      MOSUNNY  100  38  11 SW15      29.89F HX  95
PALMDALE       MOSUNNY   97  38  13 SW13      29.90F HX  92

CITY           SKY/WX    TMP DP  RH WIND       PRES   REMARKS
29 PALMS       CLOUDY   100  46  16 VRB3      29.89F HX  96
BARSTOW/DAGGET CLOUDY   104  31   8 N5        29.82F HX  97
BISHOP         MOSUNNY   99  42  14 S15G22    29.93F HX  94
CHINA LAKE     MOSUNNY  104  29   7 S14G21    29.84F HX  97
EDWARDS AFB    SUNNY    101  27   7 W14G21    29.84F HX  94
MOJAVE         FAIR      97  36  11 S13G18    29.92F HX  92
NEEDLES        MOSUNNY  107  49  14 SW16      29.72F HX 104
VICTORVILLE    MOSUNNY  100  27   7 S15       29.90F HX  93

$$

CAZ039-040-040000-
VENTURA AND SANTA BARBARA COUNTY COAST


CITY           SKY/WX    TMP DP  RH WIND       PRES   REMARKS
CAMARILLO      SUNNY     72  58  61 W14       29.89F
NWS OXNARD       N/A     73  59  61 CALM      29.91F
OXNARD AIRPORT PTSUNNY   68  58  70 W17       29.90F
*POINT MUGU    SUNNY     72  59  63 W13       29.91F
SBA APT/GOLETA SUNNY     70  59  68 W13       29.90F
*SANTA BARBARA   N/A     75  59  57 NE1       29.97F
*VENTURA         N/A     72  59  63 SW13      29.50S

$$

CAZ044-045-040000-
VENTURA COUNTY VALLEYS


CITY           SKY/WX    TMP DP  RH WIND       PRES   REMARKS
*SIMI VALLEY     N/A     83  56  38 W3        29.82F
*OJAI            N/A     90  60  36 W3        29.78F
*FILLMORE        N/A     86  60  40 CALM      29.77F

$$

CAZ053-040000-
VENTURA COUNTY MOUNTAINS


CITY           SKY/WX    TMP DP  RH WIND       PRES   REMARKS

$$

CAZ034-035-036-040000-
CENTRAL COAST AND SANTA YNEZ VALLEY


CITY           SKY/WX    TMP DP  RH WIND       PRES   REMARKS
SAN LUIS OBISP SUNNY     76  57  51 NW14      29.91F
SANTA MARIA    SUNNY     73  60  63 N14       29.93F

CITY           SKY/WX    TMP DP  RH WIND       PRES   REMARKS
*CAL POLY SLO    N/A     75  59  57 W7          N/A
*LOMPOC        SUNNY     68  57  68 W16       29.94F
*PISMO BEACH     N/A     62  59  91 W9        29.94F
*SANTA YNEZ    FAIR      86  46  25 W14       29.89F

$$

CAZ037-038-051-040000-
SAN LUIS OBISPO COUNTY INTERIOR AND CUYAMA VALLEY


CITY           SKY/WX    TMP DP  RH WIND       PRES   REMARKS
*CUYAMA          N/A     94  52  23 N3        29.74F HX  91
PASO ROBLES    SUNNY     91  55  29 S16       29.84F

$$

CAZ032-033-061-040000-
SOUTHERN DESERTS


CITY           SKY/WX    TMP DP  RH WIND       PRES   REMARKS
BLYTHE         CLOUDY   103  56  21 W3        29.70F HX 102
IMPERIAL       PTSUNNY  106  50  15 CALM      29.66F HX 103
PALM SPRINGS   PTSUNNY  109  51  14 N8        29.71F HX 106
THERMAL        PTSUNNY  110  57  17 VRB3      29.64F HX 110

$$

ELSEWHERE ACROSS THE WESTERN UNITED STATES AND MEXICO


CITY           SKY/WX    TMP DP  RH WIND       PRES   REMARKS
DENVER, CO     MOSUNNY   83  53  35 SE10      30.08F
GRAND CANYON,    N/A    N/A N/A N/A MISG        N/A
HONOLULU, HI   MOSUNNY   90  66  45 NE9       29.89F HX  92
KAHULUI, MAUI  MOSUNNY   91  70  49 NE17G23   29.89F HX  97
LAKE TAHOE, CA PTSUNNY   81  54  39 VRB5      30.18S
LAS VEGAS, NV  MOSUNNY  107  42  11 S8G20     29.73F HX 102
MAMMOTH LAKES, FAIR      84  39  20 SE6       30.22F
MEXICO CITY, M CLOUDY    64  52  63 W12       30.21
PHOENIX, AZ    CLOUDY    97  56  25 VRB3      29.75F HX  95
PORTLAND, OR   MOSUNNY   94  58  29 NW9       29.85F HX  93
RENO, NV       PTSUNNY   83  55  38 NW20      30.02S
SALT LAKE CITY MOSUNNY   98  43  15 NW10      29.92F HX  94
SAN DIEGO, CA  MOSUNNY   73  60  63 W14G21    29.89F
SAN FRANCISCO, MOSUNNY   69  57  65 NW22G28   29.88F
SAN JOSE, CA   MOSUNNY   80  61  52 NW13      29.86F
SEATTLE, WA    SUNNY     90  52  27 W6        29.90F
TIJUANA, MEX   MOSUNNY   75  59  57 NW12      29.89F

$$

STATION/POSITION TIME  TEMP    WIND        PRES    VSBY  WAVE
                       AIR SEA DIR/SP/G                  HT/PER
                 (UTC) (F)     (DEG/KT/KT) (MB)    (MI)  (FT/S)
POINT ARGUELLO B NOT AVBL
WEST SANTA BARBA 2250   60 61  300/ 14/ 17 1012.7F         3/14
POINT CONCEPTION NOT AVBL
EAST SANTA BARBA 2300   60 64  270/ 16/ 19 1013.5F
SANTA MONICA BAY 2250   64 69  290/ 10/ 12 1012.3F         2/14


USA.gov is the U.S. government's official web portal to all federal, state and local government web resources and services.